Flag for El Salvador Weather past 2 weeks in San Salvador, El Salvador

Now
70 °F

Sunny.


Feels Like: 70 °F
Forecast: 67 / 85 °F
Wind: 5 mph from North

Location: San Salvador / Ilopango

Current Time: Jul 28, 2014 at 7:57:40 AM

Latest Report: Jul 28, 2014 at 6:50 AM


Visibility: 10 mi

Pressure: 30.01 "Hg

Humidity: 94%

Dew point: 68 °F

Location of San SalvadorLocation

Historic Weather in San Salvador — Graph

°F

San Salvador temperature yesterday

Maximum temperature yesterday: 90 °F (at 1:50 PM)
Minimum temperature yesterday: 68 °F (at 5:50 AM)
Average temperature yesterday: 81 °F

Past Weeks' High & Low Weather Summary

 TemperatureHumidityPressure
High91 °F (Jul 21, 1:50 PM)100% (Jul 13, 11:50 PM)30.92 "Hg (Jul 13, 11:50 PM)
Low68 °F (Jul 27, 5:50 AM)49% (Jul 20, 12:50 PM)29.86 "Hg (Jul 26, 7:50 PM)
Average80 °F76%29.99 "Hg
* Reported Jul 13 5:50 AM — Jul 28 5:50 AM, San Salvador, Weather by CustomWeather, © 2014

Note: Actual official high and low records may vary slightly from our data, if they occured in-between our weather recording intervals... More about our weather records

Advertising

San Salvador weather history for previous 24 hours

 ConditionsComfort  
Time TempWeatherWind HumidityBarometerVisibility
5:50 AM
Jul 28
70 °FSunny.5 mph88%30.01 "Hg10 mi
11:50 PM
Jul 27
73 °FPassing clouds.5 mph94%30.07 "HgN/A
10:50 PM75 °FPassing clouds.3 mph89%30.04 "HgN/A
9:50 PM75 °FPassing clouds.3 mph94%30.04 "HgN/A
8:50 PM77 °FPassing clouds.No wind89%30.01 "HgN/A
7:50 PM77 °FPassing clouds.8 mph83%30.01 "HgN/A
6:50 PM79 °FPassing clouds.3 mph79%29.98 "HgN/A
5:50 PM81 °FPassing clouds.No wind74%29.98 "HgN/A
4:50 PM86 °FThunderstorms. Scattered clouds.5 mph66%29.98 "HgN/A
4:00 PM90 °FPassing clouds.12 mph52%30.01 "HgN/A
3:54 PM90 °FPassing clouds.12 mph52%30.01 "HgN/A
2:50 PM90 °FScattered clouds.5 mph59%30.01 "HgN/A
1:50 PM90 °FPartly sunny.12 mph55%30.01 "HgN/A
12:50 PM88 °FPassing clouds.6 mph62%30.04 "HgN/A
11:50 AM86 °FSunny.6 mph59%30.01 "Hg10 mi
10:50 AM84 °FSunny.12 mph70%30.04 "Hg10 mi
9:50 AM82 °FSunny.9 mph74%30.07 "Hg10 mi
8:50 AM79 °FSunny.12 mph74%30.04 "Hg10 mi
7:50 AM73 °FSunny.7 mph89%30.04 "Hg10 mi
Weather by CustomWeather, © 2014

See weather overviewHow to use our weather pages